Regional Weather Roundup
Issued by NWS

Home | Current Version | Previous Version | Text Only | Print | Product List | Glossary Off
Versions: 1 2 3 4 5 6 7 8 9 10 11 12 13 14 15 16 17 18 19 20 21 22 23 24 25 26 27 28 29 30 31 32 33 34 35 36 37 38 39 40 41 42 43 44 45 46 47 48 49 50

000
ASUS43 KOAX 162302
RWRNE

WEATHER ROUNDUP FOR NEBRASKA
NATIONAL WEATHER SERVICE OMAHA NE
600 PM CDT TUE SEP 16 2014

NOTES: SATELLITE DATA IS BEING USED TO AUGMENT CLOUD COVER ABOVE
       12000 FEET.
       "FAIR" INDICATES FEW OR NO CLOUDS BELOW 12,000 FEET WITH NO
       SIGNIFICANT WEATHER AND/OR OBSTRUCTIONS TO VISIBILITY.

  * THESE STATIONS DO NOT REPORT WEATHER SUCH AS RAIN...SNOW OR FOG.

NEZ001>004-019>022-054>056-170000-
NEBRASKA PANHANDLE

CITY           SKY/WX    TMP DP  RH WIND       PRES   REMARKS
SCOTTSBLUFF    SUNNY     88  36  15 VRB3      30.00F
ALLIANCE       SUNNY     84  35  17 N6        30.00F
CHADRON        SUNNY     84  47  27 E5        29.95F
KIMBALL        SUNNY     83  32  16 N8        30.06F
SIDNEY         SUNNY     85  38  18 NE12      30.05F
$$

NEZ057>060-069>072-079>082-170000-
SOUTHWEST NEBRASKA

CITY           SKY/WX    TMP DP  RH WIND       PRES   REMARKS
NORTH PLATTE   PTSUNNY   75  59  57 S6        29.97F
IMPERIAL         N/A     86  48  26 N14       29.97S
LEXINGTON      MOSUNNY   71  60  67 S10       29.99F
MCCOOK         SUNNY     79  59  50 SE12      29.96F
OGALLALA       SUNNY     83  53  36 N5        29.98F
$$

NEZ005>010-023>029-035>040-094-170000-
NORTH CENTRAL NEBRASKA

CITY           SKY/WX    TMP DP  RH WIND       PRES   REMARKS
VALENTINE      PTSUNNY   79  54  41 MISG      29.94F
BROKEN BOW     SUNNY     71  57  61 S15       29.99F
O`NEILL        PTSUNNY   70  58  66 S12       29.98F
ORD            PTSUNNY   66  55  67 S10       29.99F
THEDFORD       SUNNY     81  58  45 SW7       29.96F
$$

NEZ041-046>049-061>064-073>077-083>087-170000-
SOUTH CENTRAL NEBRASKA

CITY           SKY/WX    TMP DP  RH WIND       PRES   REMARKS
GRAND ISLAND   CLOUDY    67  53  61 S10       30.02F
HASTINGS       CLOUDY    66  52  60 S7        30.02F
HEBRON         CLOUDY    69  47  45 S6        30.02F
HOLDREGE       CLOUDY    67  55  65 S9        30.01F
KEARNEY *      CLOUDY    66  55  68 SE10      30.02F
YORK           CLOUDY    66  54  63 S6        30.02F
$$

NEZ011>018-030>034-042>045-170000-
NORTHEAST NEBRASKA

CITY           SKY/WX    TMP DP  RH WIND       PRES   REMARKS
NORFOLK        MOSUNNY   69  50  50 S10       30.00F
ALBION         CLOUDY    67  55  64 SE6       30.00S
COLUMBUS *     PTSUNNY   68  48  49 S8        30.02F
TEKAMAH        SUNNY     68  48  48 S7        30.03F
WAYNE          SUNNY     68  50  53 S8        30.01F
$$

NEZ050>053-065>068-078-088>093-170000-
SOUTHEAST NEBRASKA

CITY           SKY/WX    TMP DP  RH WIND       PRES   REMARKS
LINCOLN        CLOUDY    70  49  47 SE10      30.02F
OMAHA EPPLEY   MOSUNNY   68  48  48 SE10      30.04F
BEATRICE       CLOUDY    70  48  44 S7        30.02F
FALLS CITY     SUNNY     71  50  47 SE8       30.03F
NEBRASKA CITY  SUNNY     68  39  34 SE8       30.04F
PLATTSMOUTH    SUNNY     67  47  49 SE5       30.04F
$$

NEZ044-045-051>053-067-170000-
OMAHA AREA

CITY           SKY/WX    TMP DP  RH WIND       PRES   REMARKS
OMAHA EPPLEY   MOSUNNY   68  48  48 SE10      30.04F
MILLARD        SUNNY     69  49  48 SE7       30.03F
OFFUTT AFB     MOSUNNY   68  52  55 SE9       30.03F
PLATTSMOUTH    SUNNY     67  47  49 SE5       30.04F
WAHOO          FAIR      69  46  43 SE6       30.02F
$$



USA.gov is the U.S. government's official web portal to all federal, state and local government web resources and services.